User: anonymous   Login
Location: Mentone
(34.5413°N, 85.5351°W)
Time: 20:40:17
(UTC-06:00)
Language:

A-11 Canister half - Orbit

View from above orbital plane
View from above orbital plane
View from above satellite
View from above satellite

Ground track
Ground track

The orbit data is extracted from the following two-line orbital elements,

1 00053U 60009E   17016.76234285 -.00000085  00000-0  00000+0 0  9998
2 00053  47.2755 146.4779 0096507 354.9306   5.0500 12.17191705516595
Epoch (UTC): 16 January 2017 18:17:46
Eccentricity: 0.0096507
inclination: 47.2755°
perigee height: 1528 km
apogee height: 1682 km
right ascension of ascending node: 146.4779°
argument of perigee: 354.9306°
revolutions per day: 12.17191705
mean anomaly at epoch: 5.0500°
orbit number at epoch: 51659

The dashed part of the orbit path shows where the satellite is in the earth's shadow,  

DLR